Weather History for Tacoma, WA

Change the Weather History Date:

Wednesday, May 1, 2013

  Actual Average Record
Temperature  
Mean Temperature 46 °F -  
Max Temperature 63 °F 58 °F 82 °F (1998)
Min Temperature 29 °F 39 °F 29 °F (2013)
Degree Days  
Heating Degree Days 20    
Moisture  
Dew Point 31 °F    
Average Humidity 58    
Maximum Humidity 98    
Minimum Humidity 21    
Precipitation  
Precipitation 0.00 in - - ()
Sea Level Pressure  
Sea Level Pressure 30.56 in    
Wind  
Wind Speed 4 mph (ENE)    
Max Wind Speed 10 mph    
Max Gust Speed -    
Visibility 10 miles    
Events      
Averages and records for this station are not official NWS values.
T = Trace of Precipitation, MM = Missing Value Source: NWS Daily Summary

Daily Weather History Graph

Daily Weather History Graph

Search for Another Location

Airport:

Trip Planner

Search our weather history database for the weather conditions in past years. The results will help you decide how hot, cold, wet, or windy it might be!

Date:

Astronomy

May. 01, 2013 Rise Set
Actual Time 5:53 AM PDT 8:21 PM PDT
Civil Twilight 5:19 AM PDT 8:55 PM PDT
Nautical Twilight 4:36 AM PDT 9:38 PM PDT
Astronomical Twilight 3:47 AM PDT 10:27 PM PDT
Moon 1:35 AM PDT (5/1) 11:38 AM PDT (5/1)
Length of Visible Light 15h 36m
Length of Day
14h 27m
Waning Gibbous, 58% of the Moon is Illuminated
May 1
Waning Gibbous
May 2
Last Quarter
May 9
New
May 17
First Quarter
May 24
Full

Hourly Weather History & Observations

Time (PDT) Temp. Windchill Dew Point Humidity Pressure Visibility Wind Dir Wind Speed Gust Speed Precip Events Conditions
12:58 AM 43.0 °F 41.3 °F 34.0 °F 71% 30.49 in 10.0 mi SSE 3.5 mph - N/A   Clear
1:58 AM 35.1 °F 32.2 °F 31.5 °F 87% 30.52 in 10.0 mi South 3.5 mph - N/A   Clear
2:58 AM 33.8 °F - 31.8 °F 92% 30.52 in 10.0 mi Calm Calm - N/A   Clear
3:58 AM 32.9 °F 29.8 °F 31.8 °F 96% 30.53 in 10.0 mi South 3.5 mph - N/A   Clear
4:58 AM 29.7 °F - 28.6 °F 96% 30.54 in 10.0 mi South 2.3 mph - N/A   Clear
5:58 AM 30.7 °F - 30.2 °F 98% 30.55 in 10.0 mi SSE 2.3 mph - N/A   Clear
6:58 AM 32.0 °F - 31.3 °F 97% 30.58 in 10.0 mi SSW 1.2 mph - N/A   Clear
7:58 AM 40.5 °F - 34.7 °F 80% 30.58 in 10.0 mi Variable 1.2 mph - N/A   Clear
8:58 AM 44.4 °F - 35.2 °F 70% 30.59 in 10.0 mi Variable 1.2 mph - N/A   Clear
9:58 AM 48.9 °F - 35.2 °F 59% 30.58 in 10.0 mi ENE 5.8 mph - N/A   Clear
10:58 AM 53.4 °F - 34.7 °F 49% 30.59 in 10.0 mi Variable 6.9 mph - N/A   Clear
11:58 AM 55.4 °F - 32.0 °F 41% 30.59 in 10.0 mi Variable 5.8 mph - N/A   Clear
12:58 PM 58.3 °F - 30.7 °F 35% 30.58 in 10.0 mi North 10.4 mph - N/A   Clear
1:58 PM 59.9 °F - 31.3 °F 34% 30.58 in 10.0 mi NNE 8.1 mph - N/A   Clear
2:58 PM 61.2 °F - 28.6 °F 29% 30.57 in 10.0 mi NE 8.1 mph - N/A   Clear
3:58 PM 62.1 °F - 26.6 °F 26% 30.57 in 10.0 mi NNE 10.4 mph - N/A   Clear
4:58 PM 62.4 °F - 21.6 °F 21% 30.56 in 10.0 mi North 4.6 mph - N/A   Clear
5:58 PM 62.6 °F - 28.6 °F 28% 30.55 in 10.0 mi NNE 8.1 mph - N/A   Clear
6:58 PM 61.5 °F - 28.0 °F 28% 30.55 in 10.0 mi NNE 5.8 mph - N/A   Clear
8:56 PM 53.6 °F - 32.0 °F 44% 30.53 in 10.0 mi NE 2.3 mph - N/A   Clear
9:58 PM 53.8 °F - 33.4 °F 46% 30.56 in 10.0 mi NE 4.6 mph - N/A   Clear
10:58 PM 53.2 °F - 34.0 °F 48% 30.56 in 10.0 mi NE 4.6 mph - N/A   Clear
11:58 PM 51.3 °F - 34.5 °F 53% 30.56 in 10.0 mi Calm Calm - N/A   Clear